Flag for U.S.A. Weather past 2 weeks in Cheyenne, Wyoming, U.S.A.

Now
60 °F

Light rain. Overcast.


Feels Like: 60 °F
Forecast: 54 / 73 °F
Wind: 15 mph from South

Location: Cheyenne Airport

Current Time: Aug 22, 2014 at 7:52:03 PM

Latest Report: Aug 22, 2014 at 6:53 PM


Visibility: 10 mi

Pressure: 29.88 "Hg

Humidity: 90%

Dew point: 57 °F

Location of CheyenneLocation

Historic Weather in Cheyenne — Graph

°F

Cheyenne temperature yesterday

Maximum temperature yesterday: 80 °F (at 12:53 PM)
Minimum temperature yesterday: 56 °F (at 4:53 AM)
Average temperature yesterday: 68 °F

Past Weeks' High & Low Weather Summary

 TemperatureHumidityPressure
High88 °F (Aug 17, 4:53 PM)90% (Aug 22, 6:53 PM)30.27 "Hg (Aug 22, 6:53 PM)
Low51 °F (Aug 8, 5:53 AM)10% (Aug 17, 2:00 PM)29.68 "Hg (Aug 19, 11:53 PM)
Average69 °F46%29.93 "Hg
* Reported Aug 7 6:53 PM — Aug 22 6:53 PM, Cheyenne, Weather by CustomWeather, © 2014

Note: Actual official high and low records may vary slightly from our data, if they occured in-between our weather recording intervals... More about our weather records

Advertising

Cheyenne weather history for previous 24 hours

 ConditionsComfort  
Time TempWeatherWind HumidityBarometerVisibility
6:53 PM
Aug 22
60 °FLight rain. Overcast.15 mph90%29.88 "Hg10 mi
5:53 PM62 °FStrong thunderstorms. Fog.14 mph86%29.91 "Hg3 mi
4:53 PM68 °FPassing clouds.15 mph61%29.88 "Hg10 mi
3:53 PM70 °FMild.15 mph53%29.89 "Hg10 mi
2:53 PM72 °FOvercast.13 mph43%29.89 "Hg10 mi
1:53 PM71 °FMostly cloudy.12 mph42%29.91 "Hg10 mi
11:53 AM70 °FSunny.7 mph46%29.91 "Hg10 mi
10:53 AM69 °FScattered clouds.10 mph53%29.96 "Hg10 mi
9:53 AM64 °FPartly sunny.6 mph68%29.98 "Hg10 mi
8:53 AM61 °FScattered clouds.3 mph78%29.99 "Hg10 mi
7:53 AM60 °FOvercast.6 mph69%30.00 "Hg10 mi
6:53 AM60 °FOvercast.6 mph69%29.96 "Hg10 mi
5:53 AM60 °FLight rain. Overcast.6 mph69%29.97 "Hg10 mi
4:53 AM60 °FLight rain. Mostly cloudy.5 mph67%29.93 "Hg10 mi
3:53 AM60 °FOvercast.No wind62%29.92 "Hg10 mi
2:53 AM59 °FPassing clouds.3 mph64%29.92 "Hg10 mi
1:53 AM59 °FLight rain. Passing clouds.3 mph64%29.92 "Hg10 mi
12:53 AM60 °FOvercast.8 mph60%29.94 "Hg10 mi
11:53 PM
Aug 21
62 °FPassing clouds.7 mph54%29.93 "Hg10 mi
10:53 PM63 °FPassing clouds.7 mph52%29.94 "Hg10 mi
9:53 PM65 °FClear.13 mph49%29.96 "Hg10 mi
8:53 PM68 °FClear.10 mph42%29.93 "Hg10 mi
7:53 PM70 °FPartly sunny.14 mph39%29.93 "Hg10 mi
Weather by CustomWeather, © 2014

See weather overviewHow to use our weather pages